This demonstration page uses our WeatherBlox Daily Observations layout. Learn more.

Left ArrowRight Arrow

Hourly Observations for December 1, 2022

Temp ( °F °C ) Dew Point ( °F °C ) Humidity (%) Winds ( mph kmh ) Pressure ( in mb ) Visibility ( mi km ) Precip ( " mm )
12:53 am 00:53 Clear 39 3.9 22 -5.6 50 50 NNW 9 15 30.34 1027 10 16 0.00 0.00
1:53 am 01:53 Clear 39 3.9 19 -7.2 44 44 NNW 9 15 30.34 1028 10 16 0.00 0.00
2:53 am 02:53 Clear 38 3.3 19 -7.2 46 46 NNW 10 17 30.34 1027 10 16 0.00 0.00
3:53 am 03:53 Clear 36 2.2 20 -6.7 52 52 NNW 5 7 30.35 1028 10 16 0.00 0.00
4:53 am 04:53 Clear 34 1.1 21 -6.1 59 59 WNW 6 9 30.37 1029 10 16 0.00 0.00
5:53 am 05:53 Clear 34 1.1 21 -6.1 59 59 Calm 30.38 1029 10 16 0.00 0.00
6:53 am 06:53 Clear 32 0 22 -5.6 66 66 Calm 30.41 1030 10 16 0.00 0.00
7:53 am 07:53 Mostly Sunny 33 0.6 21 -6.1 61 61 Calm 30.42 1030 10 16 0.00 0.00
8:53 am 08:53 Sunny 36 2.2 21 -6.1 54 54 Calm 30.45 1031 10 16 0.00 0.00
9:53 am 09:53 Sunny 41 5 21 -6.1 44 44 NNW 5 7 30.46 1031 10 16 0.00 0.00
10:53 am 10:53 Sunny 45 7.2 22 -5.6 40 40 Calm 30.47 1032 10 16 0.00 0.00
11:53 am 11:53 Sunny 49 9.4 21 -6.1 33 33 Calm 30.46 1032 10 16 0.00 0.00
12:53 pm 12:53 Sunny 51 10.6 20 -6.7 29 29 Calm 30.43 1031 10 16 0.00 0.00
1:53 pm 13:53 Sunny 54 12.2 19 -7.2 25 25 Calm 30.41 1030 10 16 0.00 0.00
2:53 pm 14:53 Sunny 57 13.9 18 -7.8 21 21 Calm 30.40 1030 10 16 0.00 0.00
3:53 pm 15:53 Sunny 56 13.3 19 -7.2 23 23 SSE 3 6 30.40 1030 10 16 0.00 0.00
4:53 pm 16:53 Sunny 55 12.8 21 -6.1 26 26 VRB 5 7 30.41 1030 10 16 0.00 0.00
5:53 pm 17:53 Clear 53 11.7 23 -5 31 31 ESE 3 6 30.42 1030 10 16 0.00 0.00
6:53 pm 18:53 Clear 51 10.6 24 -4.4 34 34 SE 6 9 30.43 1031 10 16 0.00 0.00
8:53 pm 20:53 Clear 41 5 31 -0.6 67 67 Calm 30.45 1031 10 16 0.00 0.00
9:53 pm 21:53 Clear 38 3.3 33 0.6 82 82 Calm 30.45 1031 10 16 0.00 0.00
10:53 pm 22:53 Clear 40 4.4 32 0 73 73 Calm 30.45 1031 10 16 0.00 0.00
11:53 pm 23:53 Clear 35 1.7 31 -0.6 85 85 Calm 30.45 1031 10 16 0.00 0.00

Powered by AerisWeather